Location: Bush Observatory
(40.2653°N, 94.3194°W)
Time: 08:21:57
(UTC-06:00)

Vanguard 1 - Visible Passes

Search period start: 07 December 2016 00:00
Search period end: 17 December 2016 00:00
Orbit: 651 x 3833 km, 34.3° (Epoch: 07 December)

Date Brightness Start Highest point End Pass type
(mag) Time Alt. Az. Time Alt. Az. Time Alt. Az.
07 Dec 13.0 18:11:40 10° W 18:28:54 67° SSW 18:52:15 10° ESE visible
07 Dec 13.4 20:35:21 10° W 20:54:27 43° SW 21:06:44 27° SSE visible
07 Dec 14.0 23:06:54 10° W 23:17:29 15° SW 23:19:35 15° SW visible
08 Dec 13.1 18:32:59 10° W 18:50:25 62° SSW 19:13:25 10° SE visible
08 Dec 13.6 20:57:21 10° W 21:15:29 36° SW 21:28:12 22° S visible
09 Dec 13.2 18:54:20 10° W 19:11:51 55° SSW 19:34:18 10° SE visible
09 Dec 13.8 21:19:46 10° W 21:36:25 28° SW 21:50:07 16° S visible
10 Dec 12.9 16:53:41 10° W 17:07:50 69° S 17:30:30 10° ESE visible
10 Dec 13.3 19:15:48 10° W 19:33:11 49° SSW 19:54:53 10° SE visible
10 Dec 14.0 21:42:58 10° W 21:57:15 22° SW 22:11:52 10° S visible
11 Dec 13.0 17:14:50 10° W 17:29:20 65° SSW 17:51:56 10° ESE visible
11 Dec 13.5 19:37:27 10° W 19:54:26 41° SSW 20:15:05 10° SSE visible
11 Dec 14.2 22:07:47 10° WSW 22:18:05 15° SW 22:28:30 10° SSW visible
12 Dec 13.1 17:36:03 10° W 17:50:47 59° SSW 18:13:08 10° SE visible
12 Dec 13.7 19:59:22 10° W 20:15:36 34° SW 20:34:49 10° SSE visible
13 Dec 13.2 17:57:20 10° W 18:12:12 53° SSW 18:34:03 10° SE visible
13 Dec 14.0 20:21:45 10° W 20:36:42 27° SW 20:53:55 10° S visible
14 Dec 13.4 18:18:44 10° W 18:33:33 46° SSW 18:54:38 10° SE visible
14 Dec 14.2 20:44:57 10° W 20:57:44 20° SW 21:12:03 10° S visible
15 Dec 13.6 18:40:19 10° W 18:54:52 38° SSW 19:14:48 10° SSE visible
15 Dec 14.4 21:10:01 10° WSW 21:18:47 14° SW 21:28:11 10° SSW visible
16 Dec 13.9 19:02:13 10° W 19:16:08 31° SW 19:34:27 10° SSE visible
